Location: Góry Miechowskie
(50.3599°N, 20.1803°E)
Time: 02:13:10
(UTC+00:00)

Vanguard 2 - Pass Details

Date: 21 September 2024
Orbit: 552 x 2910 km, 32.9° (Epoch: 09 October)

Event Time Altitude Azimuth Distance (km) Brightness Sun altitude
Rises 04:04:49 0° 240° (WSW) 3,198 - -4.0°
Exits shadow 04:05:10 - 238° (WSW) 3,116 10.1 -3.9°
Reaches altitude 10° 04:08:41 10° 209° (SSW) 2,622 9.9 -3.4°
Maximum altitude 04:11:01 12° 187° (S) 2,694 10.2 -3.0°
Drops below altitude 10° 04:13:43 10° 165° (SSE) 3,132 10.8 -2.6°
Sets 04:19:37 0° 140° (SE) 4,725 12.2 -1.6°
